Regional Weather Roundup
Issued by NWS New Orleans/Baton Rouge, LA

Home | Current Version | Previous Version | Graphics & Text | Print | Product List | Glossary On
Versions: 1 2 3 4 5 6 7 8 9 10 11 12 13 14 15 16 17 18 19 20 21 22 23 24 25 26 27 28 29 30 31 32 33 34 35 36 37 38 39 40 41 42 43 44 45 46 47 48 49 50
176
ASUS44 KLIX 181501
RWRLIX
NEW ORLEANS REGIONAL WEATHER ROUNDUP
NATIONAL WEATHER SERVICE NEW ORLEANS LA
1000 AM CDT THU SEP 18 2014

NOTE: "FAIR" INDICATES FEW OR NO CLOUDS BELOW 12,000 FEET WITH NO
      SIGNIFICANT WEATHER AND/OR OBSTRUCTIONS TO VISIBILITY.
      SKY/WX - SKY CONDITION AND SIGNIFICANT WEATHER.
      TMP - AIR TEMPERATURE.     DP    - DEWPOINT TEMPERATURE.
      RH  - RELATIVE HUMIDITY.   PRES  - PRESSURE.
      HI  - HEAT INDEX.          WCI   - WIND CHILL INDEX.

*  THESE STATIONS ARE NOT NWS OR FAA STATIONS AND ARE NOT UNDER
   NWS QUALITY CONTROL.

LAZ038-040-048-061>063-065>067-069-181600-
SOUTHEAST LOUISIANA

CITY           SKY/WX    TMP DP  RH WIND       PRES   REMARKS
N.O. AUDUBON     N/A     87  74  65 MISG        N/A  HX  95
N.O. INTL ARPT PTSUNNY   83  74  74 NE7       29.95R
N.O. LAKEFRONT MOSUNNY   83  73  72 E6        29.96R
N.O. DOWNTOWN*   N/A     84  72  65 E5        29.96R
SLIDELL        PTSUNNY   84  74  71 N3        29.95R
BATON ROUGE    CLOUDY    77  73  87 NE6       29.95S
BOOTHVILLE     MOSUNNY   85  75  72 E6        29.95R
BELLE CHASSE   PTSUNNY   84  73  69 E7        29.94R
BOGALUSA*        N/A     82  73  75 CALM      29.96F
GALLIANO*      NOT AVBL
NEW ROADS*       N/A     75  73  95 CALM      29.95S
GONZALES*        N/A     80  78  95 CALM      29.94S
HAMMOND*       NOT AVBL
HOUMA*         MOSUNNY  N/A N/A N/A NE7       29.95R
PORT FOURCHON* SUNNY     82  73  74 CALM      29.98S

$$

MSZ070-080>082-181600-
SOUTHERN MISSISSIPPI

CITY           SKY/WX    TMP DP  RH WIND       PRES   REMARKS
MCCOMB         CLOUDY    78  73  84 CALM      29.96S
GULFPORT       MOSUNNY   83  73  72 CALM      29.94R
BILOXI         MOSUNNY   84  73  70 VRB2      29.95R
PASCAGOULA     PTSUNNY   83  74  74 CALM      29.94S
STENNIS ARPT*  SUNNY     82  73  74 CALM      29.95R

$$

COASTAL OBSERVATIONS
LAKE AND NEARSHORE STATIONS

STATION/POSITION TIME  TEMP    WIND        PRES    WAVE
                       AIR SEA DIR/SP/G            HT/PER
                 (UTC) (F)     (DEG/KT/KT) (MB)    (FT/S)
PASCAGOULA       1400   83     120/  2/  4 1013.4
WAVELAND YACHT   1400   80      CALM  /  1 1013.3
GRAND ISLE       1400   78 87  100/  3/  4 1014.7
SOUTHWEST PASS   1400   83 90  250/  9/ 10 1014.4
NEW CANAL        1400   81 82   60/  6/  7 1014.5
SHELL BEACH      1400   82 81   50/  6/  8 1014.0

OFFSHORE STATIONS

STATION/POSITION TIME  TEMP    WIND        PRES    WAVE
                       AIR SEA DIR/SP/G            HT/PER
                 (UTC) (F)     (DEG/KT/KT) (MB)    (FT/S)
64 S DAUPHIN ISL 1421   83 85   60/  4/  6 1014.4    1/ 6

$$




USA.gov is the U.S. government's official web portal to all federal, state and local government web resources and services.